{"data":{"norad_id":66760,"intl_designator":"2025-276CY","name":"TRANSPORTER-15 OBJECT CY","alt_names":[],"object_type":"PAYLOAD","status":"ACTIVE","operator":null,"country":"TBD","launch_date":"2025-11-28","launch_site_code":"AFWTR","launch_vehicle":null,"mission":null,"orbit_class":"UNKNOWN","rcs_meters":null,"size_class":null,"mass_kg":null,"dimensions":null,"purposes":[],"wikipedia_slug":null,"has_3d_model":false,"image_url":null,"decayed_at":null,"tle_current":{"epoch":"2026-05-25T03:36:54.324000Z","epoch_age_seconds":72353,"freshness":"FRESH","line1":"1 66760U 25276CY  26145.15062875  .00004551  00000+0  21427-3 0  9992","line2":"2 66760  97.4193 219.2255 0001739  76.0191 284.1238 15.20028857 26936","mean_motion":15.20028857,"eccentricity":0.0001739,"inclination_deg":97.4193,"raan_deg":219.2255,"arg_perigee_deg":76.0191,"mean_anomaly_deg":284.1238,"bstar":0.00021427,"rev_number":2693,"period_min":94.735043572926,"perigee_km":504.55637895849,"apogee_km":506.95059607004,"semimajor_km":6883.8904875143,"source":"CELESTRAK","updated_at":"2026-05-25T13:38:06.454425Z"}}}